Shreveport, LA

4:54 AM CST on February 10, 2016 (GMT -0600)
Barksdale Air Force Base

Weather History for KBAD - October, 2012

Change the Weather History Date:

Monday, October 29, 2012

  Actual Average Record
Temperature  
Mean Temperature 50 °F -  
Max Temperature 63 °F 70 °F 86 °F (2000)
Min Temperature 37 °F 51 °F 34 °F (2008)
Degree Days  
Heating Degree Days 15    
Moisture  
Dew Point 36 °F    
Average Humidity 66    
Maximum Humidity 95    
Minimum Humidity 30    
Precipitation  
Precipitation 0.00 in - - ()
Sea Level Pressure  
Sea Level Pressure 30.23 in    
Wind  
Wind Speed 2 mph (North)    
Max Wind Speed 8 mph    
Max Gust Speed -    
Visibility 9 miles    
Events      
Averages and records for this station are not official NWS values.
T = Trace of Precipitation, MM = Missing Value Source: NWS Daily Summary

Daily Weather History Graph

Daily Weather History Graph

Search for Another Location

Airport or City:

Trip Planner

Search our weather history database for the weather conditions in past years. The results will help you decide how hot, cold, wet, or windy it might be!

Date:

Astronomy

Oct. 29, 2012 Rise Set
Actual Time 7:29 AM CDT 6:26 PM CDT
Civil Twilight 7:04 AM CDT 6:51 PM CDT
Nautical Twilight 6:35 AM CDT 7:20 PM CDT
Astronomical Twilight 6:06 AM CDT 7:49 PM CDT
Moon 6:21 PM CDT (10/29) 7:19 AM CDT (10/29)
Length of Visible Light 11h 46m
Length of Day
10h 56m
Full, 100% of the Moon is Illuminated
Oct 29
Full
Oct 29
Full
Nov 6
Last Quarter
Nov 13
New
Nov 20
First Quarter

Hourly Weather History & Observations

Time (CDT) Temp. Windchill Dew Point Humidity Pressure Visibility Wind Dir Wind Speed Gust Speed Precip Events Conditions
12:55 AM 40.3 °F - 38.7 °F 94% 30.24 in 10.0 mi Calm Calm - N/A   Clear
1:55 AM 39.4 °F - 37.9 °F 95% 30.24 in 10.0 mi Calm Calm - N/A   Clear
2:55 AM 39.4 °F - 37.2 °F 92% 30.25 in 10.0 mi Calm Calm - N/A   Clear
3:55 AM 38.8 °F 35.4 °F 36.0 °F 89% 30.25 in 10.0 mi NNW 4.6 mph - N/A   Clear
4:55 AM 38.3 °F 35.9 °F 34.9 °F 87% 30.25 in 10.0 mi NNW 3.5 mph - N/A   Clear
5:55 AM 38.1 °F 34.6 °F 34.3 °F 86% 30.27 in 10.0 mi NNW 4.6 mph - N/A   Clear
6:55 AM 37.8 °F 35.3 °F 34.0 °F 86% 30.28 in 10.0 mi NNE 3.5 mph - N/A   Clear
7:55 AM 37.8 °F 35.3 °F 32.7 °F 82% 30.30 in 10.0 mi NNW 3.5 mph - N/A   Clear
8:55 AM 41.9 °F - 34.2 °F 74% 30.32 in 10.0 mi Calm Calm - N/A   Clear
9:55 AM 47.5 °F - 35.8 °F 64% 30.33 in 10.0 mi NNE 3.5 mph - N/A   Clear
10:55 AM 52.0 °F - 36.0 °F 54% 30.33 in 10.0 mi NE 3.5 mph - N/A   Clear
11:55 AM 55.8 °F - 32.5 °F 41% 30.32 in 10.0 mi Calm Calm - N/A   Clear
12:55 PM 58.8 °F - 31.5 °F 36% 30.30 in 10.0 mi Variable 4.6 mph - N/A   Clear
1:55 PM 61.0 °F - 33.1 °F 35% 30.25 in 10.0 mi Variable 5.8 mph - N/A   Clear
2:55 PM 61.3 °F - 31.6 °F 33% 30.21 in 10.0 mi Variable 4.6 mph - N/A   Clear
3:55 PM 62.6 °F - 30.9 °F 30% 30.20 in 10.0 mi North 8.1 mph - N/A   Clear
4:55 PM 63.5 °F - 32.5 °F 31% 30.18 in 8.0 mi North 6.9 mph - N/A   Clear
5:55 PM 59.9 °F - 33.3 °F 37% 30.17 in 5.0 mi Calm Calm - N/A   Haze
6:54 PM 55.4 °F - 35.6 °F 47% 30.17 in 6.0 mi NE 3.5 mph - N/A   Haze
6:55 PM 55.8 °F - 35.6 °F 47% 30.17 in 6.0 mi NE 3.5 mph - N/A   Haze
7:08 PM 55.4 °F - 35.6 °F 47% 30.17 in 5.0 mi Calm Calm - N/A   Haze
7:55 PM 48.7 °F - 39.7 °F 71% 30.18 in 10.0 mi Calm Calm - N/A   Clear
8:55 PM 46.8 °F - 41.2 °F 81% 30.18 in 9.0 mi Calm Calm - N/A   Clear
9:55 PM 44.4 °F - 41.0 °F 88% 30.18 in 10.0 mi Calm Calm - N/A   Clear
10:55 PM 42.8 °F - 39.7 °F 89% 30.17 in 10.0 mi Calm Calm - N/A   Clear
11:55 PM 41.4 °F - 38.8 °F 91% 30.16 in 10.0 mi Calm Calm - N/A   Clear